Regional Weather Roundup
Issued by NWS Cleveland, OH

Home | Current Version | Previous Version | Text Only | Print | Product List | Glossary Off
Versions: 1 2 3 4 5 6 7 8 9 10 11 12 13 14 15 16 17 18 19 20 21 22 23 24 25 26 27 28 29 30 31 32 33 34 35 36 37 38 39 40 41 42 43 44 45 46 47 48 49 50

000
ASUS41 KCLE 070602
RWRCLE
OHIO REGIONAL WEATHER ROUNDUP
NATIONAL WEATHER SERVICE CLEVELAND, OH
200 AM EDT THU MAY 07 2015

NOTE: "FAIR" INDICATES FEW OR NO CLOUDS BELOW 12,000 FEET WITH NO
SIGNIFICANT WEATHER AND/OR OBSTRUCTIONS TO VISIBILITY.

OHZ001>008-015>018-024>027-034-035-043-044-070700-
   NORTHWEST OHIO

CITY           SKY/WX    TMP DP  RH WIND       PRES   REMARKS
DEFIANCE       CLEAR     59  54  83 E3        30.16S
FINDLAY        CLEAR     59  54  83 E5        30.15S
TOLEDO EXPRESS CLEAR     54  53  97 CALM      30.16F FOG
TOLEDO EXEC    CLEAR     53  50  89 CALM      30.17F FOG
LIMA           CLEAR     61  57  87 E6        30.15S
$$

OHZ009>014-019>023-028>033-038-089-070700-
   NORTHEAST OHIO

CITY           SKY/WX    TMP DP  RH WIND       PRES   REMARKS
CLE-HOPKINS    PTCLDY    56  53  90 N6        30.18F
CLE-LAKEFRONT  CLEAR     52  50  93 E3        30.15F
CUY CO. ARPT   NOT AVBL
LORAIN-ELYRIA  CLEAR     52  51  97 NE3       30.16F FOG
ASHTABULA      CLEAR     51  49  92 CALM      30.17F FOG
AKRON-CANTON   CLEAR     60  55  83 E8        30.16F
WOOSTER        CLEAR     54  52  93 CALM      30.17S
MANSFIELD      CLEAR     61  57  87 S5        30.17F
YOUNGSTOWN     PTCLDY    57  55  93 CALM      30.17F
$$

OHZ042-051>053-060>062-070>072-077>081-070700-
  SOUTHWEST OHIO

CITY           SKY/WX    TMP DP  RH WIND       PRES   REMARKS
CINC-COVINGTON CLEAR     67  54  63 CALM      30.12S
CINC-LUNKEN    CLEAR     58  57  97 CALM      30.12F FOG
HAMILTON       CLEAR     59  56  89 CALM      30.13S
DAYTON         CLEAR     67  58  72 E5        30.15S
WRIGHT-PAT AFB NOT AVBL
DAYTON GENERAL CLEAR     66  55  67 E6        30.13S
WILMINGTON     CLEAR     66  53  63 E7        30.14S
$$

OHZ036-037-039>041-045>050-054>059-063>069-073>076-082>088-070700-
  CENTRAL AND SOUTHEAST OHIO

CITY           SKY/WX    TMP DP  RH WIND       PRES   REMARKS
COLUMBUS       CLEAR     68  57  68 CALM      30.13F
OSU AIRPORT    CLEAR     63  56  78 CALM      30.14F
BOLTON FIELD   NOT AVBL
RICKENBACK AFB NOT AVBL
NEWARK         CLEAR     58  56  93 CALM      30.14F
MARION         CLEAR     60  57  89 CALM      30.16S FOG
LANCASTER      CLEAR     59  56  89 CALM      30.14F
ZANESVILLE     CLEAR     61  56  83 CALM      30.14F
NEW PHILLY     CLEAR     62  58  86 CALM      30.16F FOG
$$


USA.gov is the U.S. government's official web portal to all federal, state and local government web resources and services.